sat.trackr.live / text

‹ back to catalog

STARLINK-31031

NORAD 58711 · 2024-002G

PAYLOAD ACTIVE UNKNOWN

§ Identity

Operator
Country
US
Launch date
2024-01-03
Launch site
AFWTR
Launch vehicle
Mass (kg)
RCS (m²)

Purposes: comms

External: N2YO · Heavens-Above · Gunter

§ Orbital elements

Epoch: 2026-05-25T05:06:04.709664Z

Period
93.85 min
Inclination
53.1619°
Eccentricity
0.0000711
Mean motion
15.34384444 rev/d
Perigee alt
462.3 km
Apogee alt
463.2 km
Semi-major
6,840.9 km
B*
2.6796e-5
RAAN
234.3383°
Arg perigee
106.3551°
Mean anomaly
253.7530°
Rev number
13,373

§ Raw data

STARLINK-310311 58711U 24002G   26145.21255451  .00000529  00000+0  26796-4 0  99922 58711  53.1619 234.3383 0000711 106.3551 253.7530 15.34384444133737

JSON: /api/v1/satellites/58711 · /tle

For live sub-satellite position, see the globe view (requires WebGL).

§ Visibility from observer

Set your observer location to see the next 7 days of passes ≥ 10°. The values pass through the URL so the page stays shareable.

No JS? Fill the form by hand. The geolocation button needs JavaScript.